RH
15 17 20 21 21 21 21 21 21 20 21 21 21 19 16 15 15 18 22 24 24 23 22 18 17 19 20 21 21 19 18 17 17 18 19 20 19 20 21 18 14 12 15 17 16 15 14 17 20 12 8 12 14 19 17 27 58 61 51 45 41 54 58 50 45 46 46 36 38 54 61 49 48 54 48 49 53 54 53 51 53 45 39 40 35 32 31 31
16 18 20 21 21 21 21 21 20 20 21 21 20 18 17 16 16 19 23 24 22 24 23 19 17 18 19 20 20 18 18 17 17 19 18 18 18 20 19 16 14 12 12 13 17 20 17 24 27 19 14 13 14 20 22 26 47 68 61 39 50 68 56 49 49 43 37 33 41 56 61 51 47 52 47 47 55 54 49 50 53 46 39 38 36 33 31 30
16 19 21 21 21 21 21 21 20 21 22 21 19 18 17 16 17 20 23 23 22 23 22 19 17 16 17 17 18 17 16 17 19 20 17 16 19 17 16 16 14 12 12 12 17 21 22 25 20 22 25 18 22 28 29 30 39 60 52 33 59 72 49 45 50 42 38 42 48 54 60 55 52 54 48 54 61 58 56 52 49 46 43 41 40 37 32 31
17 19 21 21 21 21 20 20 20 22 22 21 20 18 18 17 18 21 22 22 20 20 19 20 18 17 19 16 18 17 16 23 24 19 15 16 18 15 15 16 16 14 13 14 17 22 26 24 20 30 28 21 44 45 31 34 34 41 40 36 52 54 39 37 42 45 46 49 57 61 60 56 58 59 56 61 58 59 65 56 51 48 42 44 46 43 37 35
18 20 21 21 21 20 20 20 20 22 21 21 20 18 18 16 18 21 22 20 18 18 17 18 19 19 19 19 21 17 20 31 25 16 13 16 16 15 16 18 19 17 14 16 19 22 21 22 30 46 39 27 47 44 29 41 38 30 34 37 44 43 30 32 45 51 54 58 64 64 54 53 61 60 63 63 51 56 64 56 54 48 39 42 46 46 44 43
19 20 21 20 20 20 19 19 19 20 21 21 20 18 18 17 19 21 20 18 16 17 17 17 18 18 17 19 19 16 24 28 20 15 13 15 16 15 16 18 20 17 15 17 18 19 22 29 36 49 49 36 40 37 36 53 44 32 39 37 39 44 29 31 46 52 60 57 58 62 55 61 62 56 68 66 49 58 70 67 60 49 40 39 44 48 50 52
20 20 20 20 20 19 19 19 19 20 21 21 20 19 18 18 20 20 19 17 15 16 16 16 17 17 18 18 15 19 29 24 15 15 13 14 16 14 15 16 18 17 16 17 19 24 32 35 39 51 46 32 38 41 43 55 48 37 41 32 30 42 35 34 46 57 66 54 54 63 53 59 60 55 71 68 53 63 74 71 58 46 43 42 48 53 51 52
20 20 19 19 19 19 20 19 20 21 21 20 19 19 18 19 19 19 19 18 19 18 14 15 17 18 19 18 18 26 31 20 15 15 12 13 15 13 14 14 15 14 16 20 22 28 35 33 39 51 40 30 35 39 44 47 47 39 32 33 31 36 39 42 49 58 65 57 58 60 50 57 63 60 67 66 59 64 66 59 54 51 53 52 52 55 53 51
19 19 19 19 19 21 21 20 21 21 20 19 18 18 18 18 19 18 19 18 21 20 14 13 17 20 19 18 24 28 23 16 15 14 11 12 13 12 13 14 14 13 14 20 21 22 29 32 36 38 32 38 38 39 47 38 40 41 36 43 35 32 47 48 41 47 56 60 60 53 51 59 62 59 55 57 62 64 59 51 54 55 54 55 52 55 54 51
19 19 19 20 21 22 21 21 21 20 20 18 17 18 18 19 19 18 18 19 20 19 17 13 14 18 15 17 27 24 15 15 14 13 12 10 11 11 12 14 14 14 14 17 21 23 27 28 33 35 30 35 36 39 46 36 38 52 55 54 43 39 52 47 35 43 50 54 61 50 50 59 58 53 44 53 66 60 54 53 56 54 49 51 52 55 53 50
19 18 20 22 23 21 20 21 21 20 18 17 17 18 18 18 17 16 16 18 18 17 17 13 11 12 9 16 25 19 12 14 14 14 13 10 10 11 12 15 14 14 15 16 20 25 27 26 29 33 24 21 31 40 45 45 45 55 57 46 50 49 43 41 34 40 41 40 58 53 46 57 57 52 45 51 65 56 50 56 57 50 47 50 52 55 53 47
17 19 22 23 22 20 20 22 22 21 18 17 17 17 18 17 16 15 15 17 16 17 17 13 11 10 10 14 19 15 12 13 15 15 14 12 10 11 14 15 14 15 14 15 21 24 26 28 28 30 26 21 27 30 37 51 50 56 52 34 49 52 32 34 34 38 35 34 57 52 38 53 56 50 47 54 62 57 51 54 56 49 47 51 52 54 53 47
18 22 23 21 20 20 22 22 20 19 17 17 17 17 18 17 17 15 15 16 15 18 17 11 10 11 16 17 13 12 12 13 15 13 13 14 11 12 16 16 15 15 14 14 18 22 25 27 28 36 41 36 32 29 42 56 49 49 46 38 48 46 39 38 34 39 32 37 56 42 29 46 54 47 49 60 59 55 54 53 53 49 47 52 54 53 51 49
21 23 22 20 19 20 22 20 18 16 15 16 16 16 16 17 17 15 15 16 17 18 15 12 9 10 20 20 11 11 12 12 14 14 14 14 13 13 15 17 17 15 16 17 15 19 24 21 26 39 44 47 42 35 52 64 56 47 35 51 57 36 48 48 38 42 26 39 55 34 32 41 42 41 47 61 58 53 54 51 51 49 49 53 55 52 49 52
22 22 20 20 19 19 19 19 17 16 16 15 13 14 15 15 15 14 14 14 17 16 12 13 10 13 23 17 10 12 12 11 13 16 18 17 17 17 16 17 18 16 16 17 13 15 15 14 27 39 38 49 58 50 59 66 68 57 26 45 62 34 47 49 44 55 30 34 47 30 40 43 34 37 45 59 58 52 51 50 52 49 50 54 54 50 48 50
22 21 20 20 19 17 17 18 16 16 15 14 13 13 15 15 15 15 13 11 14 13 11 12 9 15 22 14 10 13 13 15 15 16 20 20 19 20 18 17 18 16 13 13 14 13 10 22 41 47 41 48 61 54 52 60 70 72 36 29 47 36 46 41 35 61 47 34 39 33 41 42 33 35 51 64 57 54 53 51 53 49 50 53 51 48 47 47
21 20 20 20 18 16 17 15 14 14 13 12 12 12 13 15 16 16 16 15 13 9 8 10 9 14 18 14 14 17 19 16 14 16 19 19 20 21 15 17 21 16 17 14 11 15 16 29 35 35 50 57 59 43 28 42 53 60 51 36 42 42 47 42 32 52 56 38 34 40 45 41 33 29 46 65 59 56 57 52 52 51 51 51 49 48 48 44
20 19 21 20 19 18 18 16 14 13 12 13 13 12 13 11 11 12 15 15 12 11 12 13 14 17 17 16 18 20 20 16 15 17 18 18 20 21 16 19 22 19 31 26 14 26 27 34 38 35 54 58 56 45 21 29 32 28 41 41 46 52 49 47 40 43 50 44 39 46 49 41 34 25 33 58 64 58 55 53 52 50 50 51 48 47 47 39
19 20 20 20 20 17 17 16 14 12 12 13 13 16 17 14 13 11 12 14 17 19 19 22 21 18 16 16 19 19 18 16 15 16 18 21 20 20 19 20 23 24 39 36 21 34 39 44 51 40 45 47 49 53 30 28 37 34 45 49 52 59 51 45 44 46 50 51 50 51 47 36 30 24 22 44 63 62 56 53 52 51 51 50 48 47 42 33
19 20 18 20 21 18 17 13 14 13 12 13 15 20 22 28 31 23 23 27 30 26 23 30 26 19 19 18 20 19 17 13 13 19 19 20 23 20 22 29 33 28 37 41 27 38 53 50 42 34 42 46 49 60 49 43 52 54 58 63 66 67 58 43 37 47 49 46 53 54 46 36 30 24 21 37 56 62 61 57 53 52 51 49 49 48 37 30
19 18 17 19 18 19 18 12 13 13 15 18 19 25 31 35 29 21 29 34 34 31 25 29 27 21 20 18 22 20 19 15 13 20 17 20 26 18 26 44 36 20 36 55 44 45 55 39 28 40 51 50 55 68 66 59 60 63 63 61 63 60 50 33 26 39 43 39 48 49 40 33 27 25 35 52 61 61 60 58 55 52 51 50 48 44 36 36
18 17 17 17 15 18 18 14 13 12 17 18 18 32 42 36 24 20 29 29 26 28 28 27 25 25 22 16 22 23 22 22 16 19 18 21 28 26 39 53 43 35 48 58 45 43 49 29 20 41 55 62 74 75 65 59 54 55 57 51 47 42 35 30 34 45 45 37 33 36 40 35 30 37 52 66 68 67 63 55 53 50 49 50 46 42 38 37
16 17 17 16 16 16 17 16 13 12 15 14 18 33 37 31 28 22 26 27 20 22 32 32 25 26 26 18 20 24 24 26 24 22 21 24 32 46 56 52 51 55 55 48 33 30 36 27 33 56 64 63 65 62 55 50 47 42 40 42 40 35 30 29 35 40 41 40 36 42 46 36 40 54 59 66 68 66 63 55 53 51 49 49 43 37 33 32
16 18 16 16 16 16 19 15 13 15 16 18 23 28 30 30 28 22 27 33 23 18 26 29 27 26 25 20 18 26 28 27 27 22 23 29 34 51 61 51 47 48 49 52 40 28 27 33 52 66 65 56 43 44 46 37 40 44 39 39 38 33 32 29 33 37 38 44 45 46 38 29 48 64 59 63 65 60 60 59 57 53 47 42 36 33 33 33
16 16 16 17 14 16 18 15 18 20 18 23 26 25 28 26 24 25 29 33 22 17 22 22 24 23 20 19 20 31 33 23 23 23 24 30 34 45 54 48 37 33 45 57 48 37 37 50 57 44 43 48 30 25 36 31 34 43 40 37 33 31 37 39 43 45 40 40 41 41 42 38 42 52 64 70 66 62 60 56 52 45 39 35 33 34 36 36
15 16 18 16 14 15 15 18 25 24 21 24 24 26 24 22 28 25 29 47 34 15 18 17 15 17 19 23 28 37 35 22 20 23 23 25 32 36 36 41 40 36 47 54 47 40 39 49 51 34 31 38 29 23 31 33 35 41 40 42 42 42 48 47 46 49 45 40 38 37 48 50 32 37 72 81 68 65 56 46 44 37 34 35 34 34 33 35
16 17 17 15 16 14 14 20 24 22 24 24 22 26 22 23 30 21 31 56 41 15 18 22 15 13 19 26 31 30 23 22 22 23 26 22 30 33 25 37 45 42 54 53 41 40 37 39 45 42 35 34 35 28 27 32 33 38 44 48 49 47 49 47 46 53 52 46 45 41 44 53 45 50 82 83 68 69 57 45 43 35 34 36 35 36 36 37
17 16 16 17 15 13 16 20 19 18 21 23 23 24 24 26 28 29 39 36 22 18 21 24 16 14 26 29 31 35 27 28 23 18 27 20 25 37 30 35 40 42 58 47 32 40 38 31 38 41 39 40 34 22 31 40 31 36 47 49 50 48 47 48 50 58 62 52 45 42 42 52 51 52 74 77 69 73 65 52 45 38 40 40 38 40 40 44
15 14 15 15 13 16 18 18 19 19 20 23 24 24 26 25 22 35 43 24 15 21 20 22 15 20 43 36 32 45 37 33 29 24 33 24 21 34 33 39 44 44 52 38 27 35 34 38 46 38 36 43 37 32 44 43 32 40 47 41 42 43 44 53 56 57 60 57 49 42 40 45 39 36 61 75 72 77 73 62 52 45 46 44 44 47 48 53
10 10 11 10 12 17 18 19 20 19 23 24 23 27 25 28 44 46 26 14 16 22 24 25 20 35 57 42 36 48 37 37 46 44 46 37 28 35 38 45 52 51 50 41 37 39 42 58 58 43 42 43 40 44 50 49 45 46 44 38 33 29 41 69 79 60 44 49 59 54 43 43 40 41 62 72 70 79 79 66 55 50 49 46 49 56 57 60
8 9 9 10 13 16 19 23 22 20 25 24 23 30 22 33 75 64 18 10 20 28 31 30 39 58 62 43 34 43 43 46 54 52 50 46 39 39 40 42 48 57 54 44 46 46 48 55 48 51 59 45 36 39 45 61 60 43 39 39 31 27 41 71 86 72 50 40 44 47 45 46 43 46 61 58 54 69 74 63 53 49 49 49 56 62 62 64
12 13 13 13 15 18 21 24 24 22 24 27 30 38 36 37 51 42 24 21 18 24 29 31 51 64 56 46 36 40 47 45 50 54 52 57 56 50 49 47 43 45 42 36 39 41 42 41 35 46 53 39 33 32 40 58 53 39 42 41 40 45 48 55 60 59 54 41 34 35 41 44 39 47 59 46 39 52 57 54 49 46 48 51 59 66 66 68
16 18 17 17 17 19 22 22 22 21 22 30 30 41 63 54 24 20 37 31 14 25 37 42 59 62 50 40 34 45 47 33 40 48 46 57 64 58 58 59 50 38 33 33 35 38 43 42 36 35 36 36 35 30 36 45 39 40 46 43 47 52 55 59 52 48 50 43 35 30 36 46 43 52 59 41 38 47 46 49 50 49 55 56 60 68 69 67
17 19 17 19 21 19 21 20 19 23 25 28 27 33 49 41 17 22 40 38 34 44 49 51 54 47 38 31 34 49 43 31 38 43 47 58 60 59 59 59 56 44 38 40 40 41 41 38 35 30 28 34 35 32 36 37 38 46 44 42 48 44 50 62 57 56 58 50 41 34 47 63 52 53 61 47 45 49 47 53 55 58 64 63 64 68 65 61
15 15 15 18 22 23 23 19 19 26 22 26 41 41 29 21 20 27 35 44 51 48 45 50 47 38 36 39 46 43 27 33 44 39 47 55 52 56 57 56 59 52 45 47 45 43 41 36 34 34 35 35 34 39 43 36 38 49 46 46 54 48 48 58 57 58 60 58 53 46 58 67 52 57 69 57 50 49 50 57 59 64 69 65 67 66 60 60
16 14 14 16 20 25 27 23 22 26 22 31 46 39 33 33 27 32 44 45 44 43 39 37 39 43 43 44 55 46 25 33 44 32 37 49 49 51 54 59 63 54 45 45 46 44 42 38 34 35 38 35 35 46 52 43 36 44 47 41 42 44 47 55 56 52 56 63 59 50 55 54 49 61 63 53 53 51 54 63 63 66 69 65 66 62 57 55
19 17 15 17 21 24 29 30 26 25 29 42 44 29 36 42 32 48 68 55 45 49 44 32 25 31 35 36 49 52 32 31 38 29 29 40 43 45 53 57 57 56 50 45 50 49 44 45 40 35 35 35 44 52 55 54 42 40 47 42 39 48 57 64 63 58 65 70 57 48 54 52 52 61 55 51 61 61 62 69 67 65 65 63 60 54 50 48
23 22 18 19 20 19 27 30 23 26 36 54 62 50 43 43 47 69 75 58 52 50 40 33 24 23 30 32 41 53 44 34 37 36 32 33 34 40 50 48 50 71 72 50 48 55 53 52 47 40 36 38 46 45 44 53 49 40 43 44 46 54 62 68 68 67 76 79 64 53 54 53 56 63 63 64 70 71 70 71 68 66 63 60 56 50 48 47
25 25 20 19 20 19 22 21 19 30 37 46 61 56 42 48 67 85 78 57 50 42 31 30 27 26 31 30 37 51 50 40 38 39 32 28 31 39 50 48 47 72 84 61 52 61 59 52 51 46 38 37 39 37 37 46 50 48 47 48 48 49 56 65 64 65 75 80 75 67 59 57 58 61 66 72 74 74 75 72 68 65 59 54 51 49 48 46
26 26 19 15 20 19 16 14 24 43 46 47 58 53 43 49 62 81 89 71 49 35 28 30 32 29 30 34 36 42 50 52 48 41 34 31 32 38 55 62 52 62 81 70 57 61 58 53 54 47 41 42 38 33 35 37 42 52 55 55 56 54 56 64 64 62 70 75 77 80 73 59 51 53 61 70 72 72 72 69 64 58 52 49 46 44 45 44
27 28 19 16 20 20 19 24 45 68 64 56 58 53 50 50 49 66 90 84 63 47 36 36 40 37 35 34 32 39 54 60 55 45 38 36 29 30 57 77 70 65 68 59 53 57 58 60 62 58 53 46 34 32 36 33 35 49 53 51 59 61 57 66 75 66 63 67 71 84 87 66 49 51 60 65 66 64 62 59 56 52 47 45 41 40 43 42
33 28 16 16 15 15 25 39 68 90 80 61 54 55 63 61 50 55 70 69 62 57 49 42 48 54 47 36 39 54 58 55 53 42 34 37 30 30 62 91 95 86 66 53 57 59 61 68 73 73 63 43 35 47 55 47 39 44 52 54 64 68 59 68 83 71 64 68 65 73 83 66 50 53 58 59 57 54 54 52 53 52 44 41 42 41 41 41
40 25 11 15 14 19 32 41 62 80 72 60 58 61 69 66 53 50 56 55 48 46 48 44 43 45 41 40 48 53 48 45 46 36 32 42 40 49 82 100 97 88 63 47 52 56 61 68 65 61 54 42 41 48 51 49 43 41 49 57 64 64 55 59 72 72 79 85 76 79 84 63 47 50 52 52 52 50 50 50 51 49 42 41 44 41 43 50
43 21 15 18 8 20 40 40 49 64 61 52 49 53 56 56 58 51 43 48 46 39 42 44 40 35 41 55 56 47 42 37 33 34 37 40 45 70 103 102 88 82 64 52 58 56 52 58 60 57 55 52 48 45 43 44 43 41 46 54 59 58 58 64 72 78 86 81 71 81 88 62 41 45 49 49 51 51 50 49 47 44 44 44 42 43 54 63
29 17 28 30 13 25 48 50 55 67 66 50 37 41 44 43 59 62 47 51 59 51 40 38 42 47 52 56 52 54 56 37 27 38 44 39 46 73 101 100 93 93 85 82 86 69 48 49 59 62 64 65 63 59 52 46 46 46 47 54 59 60 65 69 73 81 83 74 68 78 82 61 42 45 53 54 55 55 51 47 43 43 45 42 41 52 64 64
24 23 30 30 26 39 56 66 70 64 60 53 35 35 42 36 46 64 58 49 58 62 52 46 50 49 42 38 40 53 61 47 38 44 48 47 48 62 90 103 99 97 96 99 97 77 61 59 59 61 64 62 59 53 43 44 55 56 56 60 61 63 68 68 73 81 77 75 77 70 67 68 59 56 61 61 58 57 53 48 46 45 42 39 48 64 65 55
39 33 26 20 24 39 51 61 71 60 49 49 32 23 39 40 34 48 50 40 53 68 61 53 50 38 30 35 40 46 53 52 46 42 46 56 59 62 82 97 99 97 96 97 91 72 65 67 64 66 65 54 51 49 43 50 59 57 60 65 60 62 66 64 70 71 67 82 90 66 59 75 72 61 64 65 58 56 53 49 48 44 38 43 59 65 56 47
37 34 37 32 26 34 39 42 61 66 56 61 55 37 44 46 31 36 43 40 53 60 44 33 38 42 44 43 37 39 48 50 46 45 50 58 66 66 68 76 91 96 86 83 85 74 68 72 72 71 67 59 57 54 50 55 57 54 59 59 56 62 66 64 66 61 61 84 88 64 62 77 72 62 64 61 54 54 51 48 46 38 37 54 66 58 51 51
37 37 45 48 42 47 52 52 64 66 56 68 67 46 45 39 21 36 53 44 41 46 36 19 20 47 68 59 42 41 48 45 40 47 55 56 61 65 57 55 72 85 77 72 80 76 66 74 83 80 72 64 57 55 55 58 58 55 56 55 55 61 64 64 65 60 61 70 67 60 70 75 65 61 60 53 49 50 48 46 42 35 43 60 62 55 56 55
35 35 41 51 56 64 73 72 68 55 48 61 52 38 55 49 23 37 56 37 19 25 34 25 21 53 81 70 50 41 42 41 33 41 57 58 62 71 61 48 60 79 82 77 78 70 57 68 86 85 76 65 55 56 58 56 57 58 56 56 60 64 67 68 67 64 67 69 63 66 80 77 61 54 54 50 49 50 50 48 41 38 50 60 58 59 61 54
28 30 32 39 45 56 64 65 67 53 36 42 39 35 53 51 34 38 41 38 36 28 29 32 35 61 81 73 64 58 58 58 46 49 61 56 56 67 57 50 65 79 84 88 87 78 68 75 88 89 82 68 54 53 54 50 58 68 69 65 66 69 69 67 65 62 65 73 78 84 93 86 64 54 54 53 52 54 54 51 44 41 52 60 60 63 60 54
26 23 29 38 38 49 64 60 59 50 27 31 47 47 49 55 60 49 27 40 68 59 47 49 45 52 60 54 57 62 67 70 63 65 75 66 64 71 64 63 74 77 84 93 91 87 82 76 82 91 85 65 52 52 55 54 60 74 77 67 62 64 63 61 61 55 58 77 93 97 92 76 59 58 63 60 58 60 58 53 46 44 52 60 62 62 58 54
Wind_Speed
2 3 4 5 6 6 7 9 10 10 9 7 5 3 3 3 5 7 8 9 10 10 8 3 3 5 4 3 2 2 2 11 23 28 22 17 23 22 19 18 18 18 13 10 9 4 3 5 6 5 4 3 3 2 3 3 3 4 3 2 2 3 4 5 7 7 4 2 4 4 4 5 3 1 2 1 6 4 3 4 3 4 4 3 5 12 17 18
3 4 5 5 5 6 7 9 9 8 7 6 5 3 3 4 5 7 8 10 11 10 9 4 1 6 5 5 5 4 5 7 20 24 21 23 24 20 18 17 18 18 14 10 9 4 3 3 5 5 5 2 2 3 2 3 3 4 3 1 3 5 5 5 6 5 3 1 3 2 1 3 4 4 4 1 2 3 2 2 4 4 3 4 7 11 15 17
3 4 4 4 5 7 8 9 8 7 6 5 4 3 4 4 5 7 8 10 11 10 9 6 3 2 3 6 8 5 5 5 14 15 22 27 22 19 19 17 18 17 12 9 7 4 2 1 2 5 4 2 2 3 3 4 2 2 2 1 5 5 4 4 5 5 3 1 2 1 1 2 3 4 3 3 2 1 4 4 1 2 4 4 5 10 15 16
2 3 3 4 4 7 8 8 8 6 5 4 4 3 3 5 6 7 9 10 11 10 8 6 7 6 4 6 6 4 2 6 6 13 25 26 21 20 19 18 18 14 9 6 5 4 2 3 5 6 4 2 4 3 3 4 2 1 2 3 5 2 2 3 5 5 2 2 3 3 2 2 3 3 3 6 4 5 7 8 8 9 11 9 7 10 15 16
2 3 3 4 5 7 8 7 6 5 5 4 4 4 4 6 6 7 9 10 11 10 7 4 6 11 10 2 3 4 2 5 5 17 26 24 19 19 18 18 18 12 6 4 4 4 4 4 7 6 4 2 5 4 2 3 2 0 1 4 4 2 2 5 4 4 2 4 4 5 4 3 3 2 5 9 6 6 6 8 10 10 12 12 10 11 13 14
1 2 3 4 6 7 7 6 6 6 5 5 4 4 5 6 6 7 8 9 12 13 7 1 1 11 18 14 9 6 6 2 8 20 24 21 17 17 18 17 16 11 6 5 5 5 5 6 7 5 3 3 2 2 1 4 2 1 4 2 3 4 3 3 2 4 5 6 5 5 4 4 5 3 4 9 10 6 4 7 9 9 13 15 13 12 10 10
1 2 3 5 7 7 7 6 6 6 6 5 5 5 5 5 5 6 7 8 13 16 12 4 2 5 10 12 14 13 9 1 11 20 22 18 14 16 16 15 15 13 10 11 8 4 5 8 5 3 3 2 1 1 1 4 3 2 3 3 2 4 5 4 2 4 6 7 6 4 3 4 6 4 1 7 12 4 2 4 10 12 15 16 12 10 10 11
1 3 4 6 7 7 7 6 6 7 6 6 6 5 5 4 4 6 6 7 10 15 17 10 1 5 2 3 8 9 5 4 15 20 19 15 11 14 14 14 16 15 15 15 8 4 4 6 2 3 2 1 3 2 2 4 3 2 3 4 1 3 6 5 2 2 4 4 2 5 3 3 6 3 1 10 11 2 2 6 11 12 12 12 10 10 10 11
2 3 5 6 7 7 7 6 7 8 8 7 6 5 4 4 4 6 5 5 7 11 16 15 6 4 1 3 7 5 4 8 15 19 17 12 9 11 13 14 16 16 15 13 10 7 4 2 3 4 3 2 4 2 2 2 2 3 3 3 2 3 6 3 3 3 4 3 4 5 5 3 2 2 4 9 7 5 6 8 10 11 10 9 9 9 10 9
3 4 6 6 7 6 6 7 9 9 9 7 5 4 3 4 4 5 4 4 6 9 13 15 10 6 5 5 7 5 6 10 14 17 14 9 7 9 13 14 14 14 12 11 12 9 4 4 5 4 5 3 3 2 1 0 1 2 1 4 4 4 6 1 4 5 2 3 5 6 5 3 2 1 5 6 5 7 9 9 8 10 10 9 8 8 10 11
4 5 5 6 6 6 7 9 10 9 7 5 4 4 4 5 5 4 3 3 5 8 9 10 10 13 16 12 7 4 8 12 15 18 14 8 6 9 13 12 11 12 10 10 10 6 2 6 6 5 1 1 2 2 1 1 2 1 2 5 6 6 6 2 3 5 2 3 6 7 3 2 2 1 7 4 7 8 11 11 8 9 10 9 9 7 8 10
4 5 5 6 7 7 9 9 8 8 7 6 5 5 5 5 5 4 2 2 3 6 6 5 1 6 15 14 5 3 9 13 16 18 14 10 6 7 11 9 8 10 7 7 7 6 3 5 7 6 2 1 2 2 0 1 3 2 3 3 8 9 7 5 2 2 0 2 5 6 2 3 3 8 9 5 9 8 9 11 9 9 9 7 8 6 6 8
4 5 6 7 7 8 7 8 10 12 10 7 5 5 6 5 6 5 2 1 2 4 5 5 2 3 6 6 2 8 12 13 18 18 14 13 6 3 9 8 6 7 6 7 7 6 4 5 7 6 1 4 1 1 2 4 3 3 3 2 6 8 6 6 2 3 3 2 5 3 4 5 8 13 8 6 10 9 8 10 9 9 7 6 6 5 5 7
4 6 6 7 7 7 7 10 13 14 13 10 7 5 7 7 7 7 4 2 1 2 3 6 7 5 6 3 1 9 15 15 21 23 19 17 11 5 7 8 6 5 6 8 9 9 6 5 9 7 3 4 0 2 3 6 4 2 2 2 3 3 5 7 2 3 5 1 2 3 4 7 8 12 7 7 10 11 11 10 10 8 7 6 6 6 5 5
5 6 6 7 7 6 7 9 11 12 13 12 8 4 5 5 6 5 4 3 2 2 1 2 3 4 5 2 1 9 17 19 24 27 23 19 14 10 12 9 6 6 7 8 8 10 9 5 8 6 2 3 3 3 4 5 4 3 3 4 3 1 5 10 6 2 2 3 3 3 4 9 9 10 6 6 9 11 11 10 10 9 7 7 5 6 5 4
6 6 6 6 6 5 4 4 7 9 11 13 12 5 3 1 1 4 5 5 7 5 4 4 5 4 5 1 6 10 15 17 21 25 24 18 11 12 16 8 4 4 5 7 6 5 11 8 5 3 1 4 6 4 4 4 5 3 2 3 5 3 5 8 5 1 2 2 3 1 4 8 8 7 4 5 9 10 9 10 10 9 8 7 5 6 5 6
6 5 6 7 6 4 4 5 6 7 10 14 18 15 10 5 1 1 1 0 5 7 9 11 8 3 5 4 6 8 11 14 18 25 27 18 9 12 16 6 3 5 0 5 9 6 10 8 2 1 4 5 3 3 5 5 5 4 3 2 4 4 3 6 7 3 3 2 2 2 4 11 13 11 5 4 9 10 10 10 9 9 7 6 6 6 6 6
4 4 6 7 7 6 6 5 4 4 6 6 9 14 17 17 12 10 6 0 1 4 7 14 11 4 3 7 5 9 15 15 16 25 29 21 9 10 14 7 4 7 3 4 9 8 6 4 2 2 4 5 4 6 4 3 3 4 4 4 4 4 3 6 8 4 5 2 3 3 7 14 18 15 7 4 8 10 12 10 6 7 7 6 6 5 6 7
3 4 7 8 8 8 8 7 4 2 4 3 2 0 4 9 15 21 24 16 7 4 2 7 7 4 3 6 7 15 15 10 13 23 30 25 13 8 10 9 5 6 6 4 6 6 4 4 5 4 3 4 3 4 2 4 5 5 5 4 5 6 7 8 10 7 3 3 5 6 10 15 16 16 9 3 7 9 9 5 5 6 6 6 6 5 7 7
2 5 7 8 9 10 9 9 8 0 5 4 3 2 2 2 6 10 16 16 7 4 4 2 1 2 2 5 10 18 11 4 9 20 31 27 13 7 8 9 8 7 6 2 4 4 4 5 3 1 4 5 4 4 4 3 4 3 4 4 6 7 9 9 10 7 2 2 7 7 11 15 15 16 11 3 3 6 6 5 6 7 7 7 7 7 7 7
3 5 7 8 9 10 10 9 9 5 3 3 3 1 1 2 5 1 2 6 3 3 4 1 1 1 3 4 10 14 6 2 6 17 32 26 9 5 7 7 8 7 5 2 4 3 5 5 0 5 6 5 3 3 4 2 2 1 3 5 6 5 9 11 10 8 2 1 6 5 10 17 14 14 9 5 2 4 5 7 7 9 9 7 8 9 7 6
3 5 6 8 9 9 11 9 9 8 6 3 5 6 3 5 8 7 4 4 2 4 4 2 3 3 4 2 8 10 3 5 8 15 30 25 11 6 4 6 6 2 5 3 3 6 5 2 4 5 3 2 3 4 3 1 1 2 2 3 6 5 7 10 7 3 3 1 8 8 11 16 14 10 5 6 5 4 4 7 9 10 10 7 8 9 7 6
3 4 5 8 9 8 9 10 7 6 7 8 11 10 7 7 9 7 5 6 1 4 4 4 4 4 5 2 10 11 5 5 5 11 24 20 8 4 3 6 5 2 6 6 5 4 3 2 4 2 2 3 2 3 3 2 2 2 3 3 6 5 4 6 6 3 1 3 10 11 10 12 8 4 4 6 5 4 3 4 7 7 9 8 8 8 6 7
2 4 5 7 10 8 6 8 7 7 9 12 13 11 9 7 6 5 5 4 2 2 1 1 1 2 3 3 11 9 3 3 1 8 18 13 4 2 4 4 4 4 4 3 5 2 3 5 2 3 3 2 2 4 4 4 5 4 4 4 7 8 4 6 9 11 7 3 4 7 9 8 4 2 3 5 5 6 6 7 8 6 7 8 7 7 6 6
2 3 5 6 9 8 4 5 7 8 8 10 11 9 8 6 3 3 4 3 3 3 2 1 1 3 3 4 11 6 2 2 1 5 12 10 5 2 3 1 2 5 5 1 3 1 4 3 2 2 4 4 3 4 1 2 5 5 5 6 8 8 7 9 11 12 10 4 1 5 7 7 3 2 3 4 6 6 6 6 8 7 8 7 7 6 5 6
3 3 5 6 8 8 3 2 4 4 4 5 6 5 4 3 2 2 3 5 3 4 4 3 1 6 7 5 10 4 2 4 1 4 11 10 5 2 2 3 2 4 4 2 2 1 2 2 3 2 3 5 5 4 2 2 5 6 4 3 5 6 7 12 12 7 6 7 3 2 2 7 6 4 4 3 5 7 5 6 7 6 6 6 5 5 5 6
4 4 5 6 7 8 3 1 2 2 2 2 3 4 2 1 2 2 2 5 4 2 3 4 2 7 7 7 9 3 3 7 4 5 10 11 7 1 3 4 2 3 2 1 4 1 2 5 5 5 4 5 4 4 2 3 4 6 3 2 6 9 11 14 11 5 5 7 4 1 2 5 6 3 2 2 6 6 5 6 5 5 6 6 5 5 6 5
5 5 5 6 6 6 4 2 1 2 3 3 3 3 2 2 1 1 5 4 3 1 1 4 3 5 7 8 9 7 1 6 3 5 12 13 9 3 3 3 1 4 2 4 4 4 1 4 4 5 5 4 2 3 3 3 1 6 4 3 7 10 12 11 9 7 3 4 6 3 2 3 7 2 2 2 5 3 2 4 4 5 5 5 5 6 5 4
6 6 6 6 5 4 3 2 2 3 4 4 4 3 3 2 1 3 6 3 2 2 1 2 4 5 8 8 8 5 3 4 3 7 13 11 11 7 3 1 3 1 3 4 2 6 1 1 1 1 1 2 4 5 4 4 4 7 7 7 8 9 8 5 4 5 2 1 5 6 2 1 8 3 2 2 3 1 2 3 3 3 4 5 5 5 3 3
7 6 6 5 4 1 1 2 4 5 5 5 4 4 3 3 4 6 4 0 1 2 1 2 3 4 8 8 6 6 5 4 3 6 7 5 9 9 3 1 4 4 2 4 2 5 4 2 2 2 1 3 3 5 4 5 4 6 7 7 7 5 1 2 1 1 3 2 5 5 2 1 6 3 2 2 2 3 3 4 3 3 5 5 4 2 2 4
7 7 6 5 2 1 1 2 5 5 5 5 4 3 2 2 5 7 2 1 1 3 3 4 3 4 8 5 4 6 5 4 6 6 6 4 7 10 6 4 4 4 4 6 4 7 7 3 0 2 1 2 2 4 2 1 1 5 5 5 8 5 3 4 3 4 3 6 5 2 2 1 5 3 1 3 4 1 4 5 4 4 4 3 2 2 3 4
10 9 7 6 3 2 2 4 5 4 4 4 4 4 3 2 4 3 1 4 2 3 2 2 4 5 5 3 3 6 4 5 5 5 3 4 6 6 5 3 3 5 6 6 6 7 6 3 3 4 1 1 2 4 4 4 4 6 4 5 8 6 5 5 6 4 2 8 5 2 2 2 5 3 1 2 5 6 6 6 6 5 3 4 5 4 4 6
11 10 9 9 7 7 7 6 4 3 3 3 3 5 6 5 2 1 3 3 2 2 1 1 3 3 4 4 5 5 3 3 5 4 1 2 5 3 2 3 3 3 3 5 6 6 5 5 4 4 2 1 3 3 5 5 6 7 3 3 4 3 6 7 6 5 6 10 6 2 1 5 5 2 1 1 5 6 7 7 6 4 3 6 7 5 6 8
12 11 11 12 11 8 7 5 3 3 3 3 4 5 7 5 1 2 3 3 1 3 2 0 5 4 2 3 3 4 2 2 4 5 3 3 5 3 4 6 6 3 1 3 4 3 3 5 4 3 2 3 4 3 0 3 5 4 2 3 2 1 3 6 4 5 9 13 10 1 1 4 5 2 3 3 5 5 6 5 5 5 3 5 7 6 8 10
10 12 14 15 13 9 5 3 2 3 3 5 6 6 5 2 3 2 2 4 1 3 2 1 4 4 3 3 3 1 1 2 4 5 4 4 3 2 3 4 5 3 1 2 2 1 1 5 5 3 2 2 3 0 1 1 3 2 2 3 2 1 2 4 5 5 7 11 8 2 1 3 1 1 2 4 5 4 3 4 7 7 5 5 7 8 9 9
4 9 13 16 15 10 4 1 2 2 3 6 8 5 2 4 2 2 2 1 1 1 3 2 4 5 4 5 4 3 1 2 3 4 3 2 1 1 1 1 2 3 3 1 1 2 1 5 7 6 4 1 1 2 1 3 2 1 2 2 4 3 5 2 8 4 4 9 7 2 3 4 1 0 1 2 2 2 2 6 7 6 7 8 8 9 9 10
2 4 8 16 16 10 5 1 3 3 4 7 7 3 2 3 2 2 2 1 0 1 3 2 2 3 3 3 4 6 4 2 3 3 2 1 1 1 2 1 1 1 1 0 2 1 1 6 7 4 4 3 1 1 2 2 2 2 2 4 4 0 4 2 4 5 5 8 7 5 8 8 6 3 1 1 3 5 6 9 9 9 11 12 12 12 13 12
3 1 4 15 17 9 5 4 4 4 6 8 5 3 2 1 1 1 2 1 0 2 5 2 0 1 1 1 3 5 4 3 4 4 2 2 1 2 2 1 1 0 1 1 0 1 1 4 7 1 2 7 3 4 4 4 2 1 2 2 2 4 5 3 2 6 7 8 8 10 12 7 4 3 1 3 7 9 9 11 12 14 15 14 14 14 15 14
1 1 3 13 15 8 5 3 4 6 7 6 3 2 1 0 0 1 2 1 1 3 3 1 1 1 1 2 2 4 3 2 3 3 2 2 2 2 3 1 1 1 2 0 1 1 1 1 5 3 3 7 5 4 4 5 4 3 3 3 3 2 3 1 1 3 4 6 9 13 13 5 2 2 3 5 8 8 9 11 13 15 15 14 14 14 15 14
1 1 2 12 13 6 5 6 7 8 6 4 3 2 1 0 0 1 1 1 1 1 1 2 2 1 1 2 1 2 2 1 1 2 1 1 2 2 2 1 2 3 3 2 1 1 1 1 4 6 5 5 4 2 1 3 5 4 3 4 5 3 2 2 2 0 1 5 7 10 12 6 1 2 4 5 7 6 7 11 12 13 15 15 15 15 14 14
2 2 3 14 11 2 3 10 9 5 4 3 2 2 1 1 1 2 3 2 0 1 1 4 3 1 1 1 1 1 1 1 0 0 1 1 1 2 2 1 1 3 3 3 2 1 1 1 3 6 6 4 4 2 1 1 3 1 1 3 3 2 3 6 6 2 1 3 5 8 12 8 2 2 4 4 4 4 7 13 14 14 16 17 17 17 16 16
4 2 4 13 8 2 6 8 4 3 4 3 1 2 1 2 2 1 1 2 1 0 1 2 2 1 2 1 1 2 1 1 0 0 1 1 0 1 2 2 1 2 1 1 2 1 0 1 2 5 5 7 8 3 2 1 2 3 1 0 1 1 3 3 6 6 4 5 5 6 10 7 2 2 4 4 5 8 11 17 17 16 18 20 19 19 17 17
3 3 4 12 4 3 9 6 2 5 4 0 1 1 1 2 2 0 0 1 1 0 2 1 1 1 1 1 0 1 1 2 2 0 0 2 1 0 2 3 3 2 1 1 2 1 1 2 2 5 5 6 5 1 2 1 2 2 2 2 2 2 1 3 6 5 4 5 3 4 9 6 1 2 2 3 11 15 16 18 19 19 18 19 19 18 18 17
2 4 3 13 5 3 5 4 2 2 1 0 2 2 2 1 2 1 0 1 1 1 1 0 1 1 0 1 2 1 1 0 1 0 1 1 1 1 1 2 3 3 3 1 2 2 2 1 3 5 7 6 5 4 3 3 4 3 3 2 4 6 6 3 3 2 1 4 4 7 10 7 4 6 7 11 18 19 18 18 18 18 18 17 17 16 17 17
3 1 2 11 13 8 4 4 6 5 2 2 4 2 2 2 1 1 1 1 1 2 1 1 0 1 1 1 1 1 1 1 1 1 2 0 2 1 2 2 3 2 2 1 2 2 2 1 2 3 5 8 8 7 8 8 7 4 4 5 7 8 8 5 3 4 4 6 6 6 9 11 14 14 11 13 19 21 20 19 19 18 17 17 17 15 15 15
2 2 2 7 11 9 3 1 5 6 4 4 3 1 1 2 1 1 1 1 1 2 1 1 0 1 2 2 2 2 2 2 1 1 2 1 3 1 1 2 2 2 1 2 1 2 2 1 2 4 4 5 8 10 11 10 9 9 10 9 7 6 6 5 4 4 7 10 8 7 12 19 21 16 12 15 21 20 20 21 20 18 18 18 16 13 14 15
2 2 1 2 4 5 4 4 5 4 4 4 3 0 1 1 1 1 0 1 0 1 1 1 2 2 2 2 2 1 2 2 2 1 0 1 4 3 1 1 2 2 2 2 1 3 3 2 3 4 7 9 10 13 14 11 10 11 10 8 7 6 5 5 3 6 8 9 9 12 18 22 21 17 15 19 21 20 20 21 19 19 20 18 14 14 17 19
2 2 2 1 2 2 3 3 3 5 5 4 3 1 1 1 0 1 1 1 1 1 0 1 3 2 1 1 1 0 3 4 2 1 0 1 3 4 3 1 1 1 1 2 3 3 4 2 3 2 7 10 10 13 13 9 7 5 4 5 7 7 6 5 5 8 6 7 11 19 23 20 17 16 18 21 21 20 21 19 18 22 22 17 15 18 20 21
3 3 0 2 3 3 1 2 4 6 5 3 3 1 2 4 2 2 1 1 2 1 1 1 3 2 2 2 2 1 2 2 2 3 1 0 2 3 3 1 1 1 1 3 3 2 3 3 3 1 7 11 11 12 11 8 6 2 3 3 6 6 5 6 7 8 9 11 16 20 20 16 12 14 18 20 19 18 18 18 20 25 22 16 17 20 21 20
2 3 2 3 4 2 1 2 4 5 4 3 2 1 2 5 3 2 1 2 0 1 0 1 2 0 2 2 3 1 3 4 2 4 3 1 2 1 1 1 2 3 4 3 2 1 1 3 1 1 5 10 9 8 8 8 5 1 2 3 6 7 6 5 6 9 12 16 16 15 14 11 9 13 19 19 18 18 18 20 24 23 18 17 19 20 20 21
3 4 6 6 4 3 2 2 3 4 2 2 2 2 2 4 4 2 1 2 2 2 1 2 2 2 2 3 2 3 5 6 5 6 6 4 2 3 2 2 2 3 4 2 1 3 3 2 2 4 4 8 5 5 12 13 2 5 1 5 6 7 8 8 9 11 13 15 15 12 9 9 11 16 19 19 20 22 20 21 23 19 15 17 19 20 21 21
5 4 4 6 4 2 1 2 2 3 2 1 1 2 1 2 2 1 1 1 1 1 2 4 4 3 2 1 1 4 5 5 5 5 4 4 2 2 1 1 3 1 1 1 1 1 2 1 3 3 3 8 6 9 15 12 3 3 2 4 6 8 9 9 11 13 9 6 8 7 7 12 17 19 20 21 21 21 19 19 20 17 15 17 18 19 21 21
Wind_Direction
55 33 27 32 21 8 359 355 354 352 0 7 9 3 347 346 353 5 11 14 18 17 19 30 175 187 194 204 259 275 319 23 32 34 33 6 351 353 349 348 354 356 358 1 11 21 30 25 3 19 55 47 16 332 12 29 52 51 80 116 255 205 197 192 186 197 177 228 228 209 195 161 202 222 156 65 39 49 40 25 353 359 32 76 112 129 143 153
49 35 26 23 6 356 352 351 348 350 2 5 10 3 346 349 352 4 6 10 14 16 20 21 186 204 222 233 250 283 273 352 25 27 14 357 355 354 347 348 349 349 352 357 6 27 77 356 340 40 52 50 354 337 24 19 46 83 110 124 240 207 212 202 181 194 186 219 204 199 194 184 212 172 147 218 325 18 72 353 355 22 48 81 107 129 145 153
37 23 15 8 356 350 345 345 346 352 360 2 6 354 350 351 353 2 7 9 10 16 25 36 80 180 253 251 253 273 270 0 26 9 354 356 357 355 352 347 344 344 345 347 354 7 108 139 32 60 45 53 352 342 32 9 5 128 119 285 250 220 239 230 188 208 220 145 137 194 236 239 228 151 152 190 182 264 206 208 170 183 188 153 135 134 142 150
18 6 2 355 345 338 337 343 349 352 354 354 353 353 354 350 355 3 9 12 11 16 23 52 75 42 333 263 245 242 269 39 23 337 348 357 358 359 357 349 344 345 341 337 352 13 79 103 63 60 62 34 342 11 43 351 348 120 133 208 245 226 274 257 208 223 217 136 148 158 135 255 224 157 166 149 144 259 234 213 195 187 181 173 170 148 143 146
8 359 344 335 329 330 337 344 348 348 348 347 346 352 351 352 360 6 15 18 13 13 16 60 68 43 34 26 190 196 64 50 331 334 351 357 359 2 4 357 351 351 357 353 4 47 66 67 55 48 53 32 350 19 23 338 60 203 249 204 213 156 251 266 218 208 144 111 116 135 175 206 161 168 178 159 190 236 225 219 203 184 171 167 165 154 146 144
17 345 322 321 325 330 338 341 342 341 340 341 343 346 348 355 4 16 25 28 24 20 14 358 73 67 67 68 84 91 81 99 310 337 351 356 359 6 10 7 8 17 40 41 34 62 51 33 51 49 37 50 15 28 309 314 36 255 291 282 219 183 210 264 208 203 158 128 151 173 196 148 131 259 201 179 218 226 226 218 185 171 163 155 149 149 149 149
349 316 314 320 327 332 338 339 339 339 338 342 342 342 348 358 13 26 31 37 36 28 21 5 231 116 83 61 63 65 80 132 322 340 348 356 2 9 15 19 33 50 63 48 36 70 59 36 57 109 76 53 229 122 307 306 33 105 266 296 229 190 213 244 214 202 166 163 199 165 129 145 175 243 101 206 235 242 278 190 150 153 151 145 145 151 157 158
290 312 318 323 331 337 341 342 343 343 342 341 340 341 351 6 24 30 32 40 36 27 26 26 101 171 199 23 58 58 55 322 334 343 347 358 8 11 18 31 42 54 61 48 44 112 87 51 95 149 81 26 193 168 348 329 21 94 233 274 235 208 248 261 267 225 194 205 176 114 155 210 191 178 158 234 237 217 147 134 135 142 141 146 154 157 161 161
313 319 324 332 339 346 351 353 349 344 341 339 339 343 359 24 34 30 30 33 27 29 29 29 55 126 131 62 77 64 339 326 339 342 348 0 10 13 19 32 36 45 57 48 50 85 104 108 196 186 161 172 161 160 348 349 291 219 203 272 279 296 304 282 251 251 241 241 120 144 226 272 239 195 262 249 217 162 141 134 140 142 147 159 160 164 165 161
326 328 336 344 351 1 2 354 346 344 344 345 352 9 36 36 23 20 31 40 36 40 34 38 61 90 98 78 70 65 329 340 348 345 354 0 1 12 17 26 29 39 51 43 44 60 101 169 183 158 143 139 124 106 14 301 225 217 233 278 265 305 317 268 240 268 268 249 178 190 239 275 309 273 263 259 163 147 138 142 155 151 161 168 165 172 168 164
339 344 351 358 9 12 359 353 354 2 10 19 36 52 52 29 15 16 45 65 43 42 32 40 70 81 82 79 79 71 340 347 352 351 3 5 2 11 12 19 26 34 39 41 43 37 85 172 151 116 125 130 108 47 323 231 95 23 343 285 286 329 316 260 267 286 302 265 191 171 237 274 359 272 240 217 152 160 149 155 170 166 173 171 170 171 167 170
354 359 9 18 21 10 2 9 29 45 48 51 60 59 46 29 28 31 62 91 30 30 19 11 87 92 71 67 78 35 348 356 357 358 10 13 9 5 9 20 33 35 30 42 41 20 56 172 132 90 312 140 111 349 267 95 60 324 25 306 300 353 332 287 321 310 4 237 174 142 284 260 202 238 238 161 154 164 151 166 178 179 180 171 170 165 168 173
6 17 30 30 22 18 26 52 67 64 55 52 53 53 62 63 50 38 50 107 334 358 21 39 120 188 62 65 57 17 5 5 6 6 14 12 6 337 11 27 32 37 43 63 55 32 70 155 120 101 90 95 116 294 97 42 28 289 30 56 312 355 324 290 45 7 348 215 166 129 282 255 222 241 241 151 158 154 159 185 185 186 182 170 170 159 169 173
23 37 41 32 29 41 65 79 74 62 52 49 50 68 89 83 61 50 55 75 348 19 49 70 94 101 70 100 225 12 8 11 15 13 8 3 5 350 5 24 29 42 62 72 66 54 77 126 96 92 89 78 239 305 28 5 19 309 338 46 359 355 290 300 326 328 336 309 109 88 263 263 251 256 245 172 167 162 178 196 189 190 179 169 170 159 171 162
41 49 43 32 41 65 83 82 66 51 46 47 54 96 113 79 54 50 57 71 83 79 60 67 87 79 69 80 340 1 3 13 16 11 4 358 7 1 349 4 43 66 76 69 73 62 59 96 80 63 310 10 39 26 10 344 10 25 331 312 341 348 278 307 310 215 279 302 35 87 246 276 267 262 254 173 173 177 189 200 192 190 177 171 169 158 161 115
55 54 40 34 50 67 69 48 32 38 51 57 62 90 167 165 66 74 74 75 61 44 48 24 341 40 84 357 335 355 0 6 4 4 6 1 4 358 348 0 53 60 90 57 59 56 35 50 70 45 348 23 43 40 19 1 348 13 26 296 297 313 310 317 311 211 214 277 0 76 240 282 271 258 266 167 180 190 199 208 194 187 178 166 164 158 140 109
61 53 38 39 45 37 10 355 17 54 75 75 69 70 76 71 179 172 245 187 53 45 55 29 353 60 75 353 345 348 339 344 351 0 7 6 1 357 2 19 8 345 208 27 27 28 18 37 82 336 48 43 45 47 21 359 324 329 19 335 276 283 302 312 302 313 33 74 297 308 240 264 271 271 276 184 184 195 209 216 196 182 172 158 161 155 130 120
65 51 43 43 36 26 18 6 20 89 110 101 75 70 70 64 69 69 48 102 354 13 37 16 12 93 23 355 353 317 316 326 349 1 5 8 0 354 12 27 350 353 13 13 24 29 2 17 72 25 31 19 30 58 30 300 265 287 314 310 300 290 255 280 284 297 12 15 245 283 265 265 274 277 278 201 185 201 216 215 184 167 158 156 159 140 128 126
68 52 49 43 34 28 25 21 20 173 185 205 236 282 43 49 60 58 50 57 61 35 36 344 11 111 289 318 315 317 317 322 356 4 5 5 352 344 15 25 25 30 39 14 4 20 9 17 45 30 354 335 0 99 163 221 208 246 270 258 281 290 270 265 268 274 354 331 248 236 257 266 275 282 289 242 191 209 224 196 139 150 149 156 153 129 132 129
69 55 50 39 32 27 21 21 22 146 196 218 244 285 314 357 39 36 33 47 71 81 99 258 337 97 307 303 324 340 343 338 10 9 5 359 342 346 10 12 29 46 44 351 316 0 66 55 46 253 252 259 248 197 187 188 186 245 272 262 269 274 282 278 271 277 49 323 261 217 246 264 274 284 295 316 203 217 222 171 147 157 155 159 149 133 136 131
66 55 45 33 27 24 22 23 24 47 140 209 229 32 145 149 72 97 346 41 65 58 66 231 206 54 305 300 334 351 1 326 359 9 5 1 353 7 2 10 34 28 5 285 276 336 63 66 346 235 228 232 237 180 169 169 168 262 268 283 293 263 274 277 271 291 30 307 267 232 267 278 282 289 305 2 339 248 215 180 166 160 157 159 144 135 136 131
60 48 35 26 22 20 25 30 32 50 76 112 113 89 123 144 113 139 145 84 40 20 41 13 38 0 304 295 344 355 31 354 346 358 3 5 18 27 358 35 56 2 337 358 352 357 38 61 268 257 208 154 71 100 133 174 218 253 265 300 306 290 291 279 257 295 58 295 288 294 292 288 290 298 339 18 337 284 239 182 165 160 156 150 140 137 136 133
46 30 25 20 21 22 28 35 41 61 78 102 107 101 113 117 122 132 100 92 50 355 22 23 41 0 343 7 353 359 54 30 339 341 358 5 20 45 62 40 38 347 351 25 51 27 12 282 262 242 150 145 37 34 83 32 345 266 282 307 296 304 329 294 278 314 52 247 287 305 300 289 299 333 36 21 359 355 359 124 130 143 146 140 137 132 129 132
29 16 18 16 21 24 30 38 51 73 83 98 102 110 122 113 120 115 79 88 45 351 10 358 148 33 0 341 350 3 92 53 321 326 355 13 11 27 75 39 15 11 352 41 82 78 274 266 207 92 70 112 318 342 62 32 338 287 257 254 278 297 287 268 293 311 308 269 292 325 311 297 332 26 7 0 23 33 27 74 87 89 111 116 115 108 107 112
13 5 11 13 18 17 20 34 49 76 89 98 104 112 114 101 112 101 80 80 10 327 339 338 153 22 340 322 351 5 145 26 81 322 351 16 6 4 53 19 40 7 319 322 65 316 280 262 165 55 30 54 6 324 47 48 341 312 263 227 250 292 294 279 302 321 323 308 339 18 334 300 327 18 346 355 31 34 24 63 83 90 101 103 103 98 89 88
4 358 8 12 13 10 9 36 44 81 94 91 113 128 112 82 72 88 88 69 8 314 347 358 65 360 343 339 345 359 82 350 321 4 8 14 4 129 62 343 30 3 301 298 3 270 301 352 73 50 9 20 6 322 274 102 22 322 268 203 245 291 299 291 305 321 312 295 278 68 304 278 302 354 1 8 50 51 40 61 77 91 94 92 96 92 84 81
358 357 4 6 9 9 8 139 58 83 102 98 138 147 141 103 86 74 67 45 359 305 346 332 330 1 349 338 344 49 70 319 315 27 14 8 354 122 55 3 8 337 287 41 1 289 309 352 23 28 8 4 359 331 261 131 26 297 246 44 317 303 294 289 298 280 270 306 308 175 182 266 288 315 329 34 75 63 58 72 73 82 84 85 88 80 81 79
359 353 356 357 1 13 31 88 70 83 116 142 152 150 150 144 140 58 75 68 344 334 22 308 319 354 344 343 8 67 81 317 14 351 344 9 11 18 47 33 62 296 307 67 358 295 302 358 357 358 359 359 319 281 214 153 302 278 274 320 290 283 279 279 288 276 288 349 314 297 99 285 285 289 337 28 85 86 122 108 81 82 81 75 74 65 67 63
0 351 350 345 340 359 34 66 96 111 121 127 125 138 142 99 48 56 76 104 322 349 176 319 340 338 345 359 15 42 6 359 58 324 339 17 12 14 66 83 114 269 315 67 339 280 302 315 237 85 21 266 265 254 202 172 257 285 305 302 276 265 267 274 282 284 332 49 279 291 82 315 298 323 21 12 85 172 192 125 83 76 66 56 67 58 32 0
2 350 340 325 310 315 22 71 103 117 113 104 112 127 119 56 54 65 55 160 334 319 252 14 2 341 6 16 356 359 21 7 331 332 355 15 349 7 79 165 85 98 333 19 327 274 309 297 200 108 168 212 272 269 209 188 254 314 334 319 303 284 286 50 352 341 6 279 260 269 126 71 307 314 73 339 290 227 176 107 84 57 48 45 53 34 335 315
12 2 343 324 305 258 263 94 107 121 108 100 111 98 71 26 61 87 84 279 321 322 355 17 351 11 30 37 341 344 18 342 332 10 10 353 356 10 34 19 29 47 1 5 336 304 334 3 225 312 256 152 344 297 273 153 334 357 351 333 333 330 25 21 351 41 24 290 283 250 134 140 279 291 69 317 312 232 129 109 89 51 40 14 329 307 296 290
31 25 18 17 45 90 106 121 123 115 107 114 104 68 72 33 29 89 275 321 338 324 11 343 323 9 8 10 356 340 351 336 353 53 21 10 37 22 27 29 347 2 2 355 338 327 334 318 294 315 305 72 0 307 329 4 16 11 6 8 360 346 355 343 331 358 270 276 294 82 61 279 267 295 309 337 14 54 77 87 79 51 12 316 295 285 288 283
48 43 44 48 63 79 88 107 120 111 127 131 83 50 75 78 33 236 270 321 0 331 16 286 313 344 332 350 4 337 340 334 349 38 55 60 64 26 3 27 26 33 351 332 345 350 333 303 323 3 338 8 42 12 350 339 344 354 13 42 21 358 337 317 311 318 292 290 294 103 47 291 298 325 207 59 51 70 74 78 63 25 321 298 293 278 284 282
59 55 54 55 60 71 84 96 101 120 136 102 69 48 63 77 218 223 274 272 279 339 24 121 319 341 26 27 349 327 357 335 343 17 15 34 50 16 349 1 20 54 223 333 356 6 347 313 329 19 335 343 32 57 21 276 313 324 177 135 69 26 312 290 285 302 301 301 302 344 142 270 306 306 187 109 73 84 82 79 34 350 287 283 291 283 289 290
60 52 47 43 42 46 70 111 113 128 128 78 62 61 80 142 233 200 243 260 292 337 328 343 3 15 12 345 330 344 41 302 339 29 26 32 55 17 359 342 353 23 40 11 336 289 307 267 273 304 298 7 23 2 195 297 314 283 159 88 18 215 202 257 263 260 287 299 299 315 220 231 242 210 163 81 81 95 72 31 6 339 296 292 295 290 294 294
53 40 36 29 23 22 31 125 142 129 121 83 64 59 132 194 211 175 203 283 23 330 318 337 36 36 342 321 333 357 21 287 333 24 28 54 103 346 5 273 314 20 53 54 304 331 341 273 289 329 336 59 111 267 331 358 323 318 22 337 280 198 149 257 289 293 329 310 298 310 299 296 354 247 157 93 94 94 7 353 351 331 317 317 312 310 309 308
302 14 27 17 11 10 18 84 154 134 95 79 80 99 209 205 158 171 190 30 237 108 62 42 25 21 325 311 314 322 340 320 340 20 14 18 55 27 27 271 254 28 14 275 257 278 281 281 300 347 325 288 195 74 18 8 3 24 337 293 285 7 107 102 302 320 329 300 291 311 313 316 331 322 179 109 4 353 340 341 342 336 336 332 326 326 322 320
288 337 31 10 5 12 43 83 124 113 82 68 77 132 193 185 103 167 171 121 209 55 70 101 233 36 204 255 292 302 333 349 354 20 20 350 8 97 78 338 289 111 322 7 259 269 164 291 307 11 283 292 327 62 10 337 7 46 276 294 16 343 337 15 326 311 318 303 296 307 311 312 304 301 76 37 352 347 339 343 346 339 337 331 326 326 324 324
319 43 28 2 5 24 45 85 100 71 72 75 88 152 157 177 87 184 180 131 112 76 74 174 228 42 179 192 255 297 341 9 353 9 41 7 354 93 100 1 324 325 313 104 162 262 114 299 296 296 300 310 339 40 349 320 338 359 334 352 31 292 277 299 284 305 325 309 304 308 312 317 281 304 73 44 355 346 338 341 340 332 329 326 326 325 323 324
34 84 352 353 3 30 42 58 66 52 65 107 166 164 66 86 238 349 1 20 113 106 89 192 180 16 274 241 242 295 351 38 356 0 28 352 339 30 65 54 322 325 332 41 99 294 7 128 264 290 323 341 345 7 5 314 322 349 0 343 342 324 260 272 279 87 23 308 309 309 308 316 13 39 84 56 0 342 331 332 329 324 325 325 326 326 325 327
66 86 328 348 351 298 48 54 53 48 85 105 134 128 54 129 136 8 2 22 110 202 165 161 157 131 241 326 335 209 331 355 4 332 302 327 25 10 26 67 326 327 0 29 35 357 351 163 246 298 330 331 295 270 130 273 263 241 335 316 313 319 344 336 319 323 68 299 295 294 297 309 23 79 100 71 359 321 319 329 329 327 330 330 331 332 331 330
66 99 317 348 360 107 67 56 30 39 97 87 70 115 62 89 104 31 346 20 41 219 62 115 145 140 162 213 273 186 194 299 267 58 251 242 114 356 0 25 332 304 41 11 327 282 177 117 249 274 269 265 271 274 64 35 183 162 151 280 206 83 48 354 300 304 314 298 286 274 285 304 19 117 130 93 1 340 337 338 336 333 334 334 333 332 330 332
84 156 334 351 337 129 65 59 340 20 67 130 1 74 34 70 107 107 308 12 355 189 21 17 190 128 176 204 170 179 200 206 203 144 231 247 255 35 354 351 320 315 36 15 326 320 53 64 323 286 263 257 268 4 58 31 44 27 353 55 68 20 18 217 249 299 306 287 313 300 289 303 53 166 168 21 354 348 343 340 336 333 333 333 330 330 333 339
123 181 357 6 352 184 88 98 149 54 60 309 53 38 351 76 112 57 53 290 287 155 104 287 187 92 168 146 123 201 241 138 220 324 68 188 238 63 59 343 327 2 47 40 335 339 334 3 358 340 333 322 329 359 338 315 5 349 303 7 33 3 343 286 256 0 294 267 318 313 294 303 328 322 341 356 348 342 337 335 335 332 331 330 329 334 342 345
84 150 312 12 34 73 104 153 145 130 152 99 75 38 0 54 67 23 157 195 232 175 147 8 146 113 114 115 71 330 335 17 298 341 30 247 264 22 64 0 331 40 61 351 316 316 303 316 83 54 348 327 320 320 314 317 334 325 300 344 11 3 354 346 336 352 314 291 307 297 288 302 318 328 348 354 342 335 332 334 335 332 331 330 332 342 349 347
97 68 321 352 26 55 71 107 100 110 147 128 88 15 44 80 321 323 131 158 204 169 115 1 156 88 53 43 20 350 333 358 35 40 21 298 277 310 53 14 9 52 18 340 1 81 68 310 188 168 201 260 272 278 294 312 316 308 314 339 3 2 4 29 21 334 310 307 306 298 303 310 320 333 348 344 336 333 333 336 334 334 334 332 338 349 349 347
101 98 77 349 9 39 40 21 47 86 142 135 108 177 152 103 312 337 108 225 136 119 50 35 57 48 29 26 29 317 298 350 34 67 63 268 274 294 313 129 71 9 330 319 355 85 77 301 255 196 217 245 260 274 291 304 297 296 317 346 357 348 5 31 353 296 310 318 308 313 318 315 320 334 340 335 334 334 334 334 334 334 333 336 347 352 346 348
69 141 175 107 75 76 52 35 70 83 78 87 102 121 105 88 188 188 199 307 33 51 163 58 24 26 183 172 109 221 313 354 5 308 124 303 307 337 355 101 101 337 330 0 350 90 110 259 255 216 256 264 267 274 282 285 279 298 354 358 343 339 349 350 298 279 300 306 299 311 318 316 319 331 334 332 333 333 331 333 338 336 334 342 352 348 347 350
81 114 35 20 92 142 124 58 94 87 65 67 93 109 144 147 180 216 206 52 12 327 162 131 342 0 176 184 124 84 319 2 337 295 208 43 331 356 359 336 326 335 76 40 355 106 136 257 249 251 285 283 279 276 278 279 279 340 43 350 329 328 309 292 278 280 297 297 297 308 313 314 320 328 329 329 331 330 330 338 341 335 335 347 350 347 350 346
146 148 142 64 74 92 49 41 79 84 51 43 84 107 152 157 182 230 193 127 144 281 99 80 319 43 150 157 116 92 237 172 200 254 188 119 316 259 191 235 257 337 25 57 335 344 18 307 292 63 310 293 280 269 281 292 280 162 84 346 331 325 314 306 309 316 316 307 307 316 315 310 321 330 328 329 332 332 337 344 339 331 336 349 349 347 346 336
109 131 139 112 74 0 16 38 65 97 67 14 114 159 188 187 190 182 171 188 184 202 188 140 146 109 78 86 114 254 237 177 190 222 188 169 235 211 203 202 180 342 359 36 340 356 28 330 345 47 345 292 290 323 316 311 302 133 63 349 346 337 340 341 328 320 315 313 321 332 324 316 329 334 331 332 334 335 339 341 332 327 341 351 348 344 339 334
101 92 114 105 81 348 34 49 35 95 123 314 133 154 208 219 210 125 126 217 190 185 191 153 138 107 59 49 244 242 223 190 204 222 187 163 157 151 183 172 144 169 301 99 29 12 90 350 327 24 328 294 322 341 314 310 11 92 286 333 355 350 341 328 317 317 318 329 337 332 321 328 334 334 331 331 334 336 339 337 328 328 344 349 344 339 336 336